Weather History for EHGR - November, 2012

Change the Weather History Date:

Saturday, November 10, 2012

  Actual Average Record
Temperature  
Mean Temperature 50 °F -  
Max Temperature 53 °F 45 °F 60 °F (2008)
Min Temperature 46 °F 35 °F 26 °F (2001)
Degree Days  
Heating Degree Days 16    
Moisture  
Dew Point 49 °F    
Average Humidity 95    
Maximum Humidity 100    
Minimum Humidity 87    
Precipitation  
Precipitation 0.00 in - - ()
Sea Level Pressure  
Sea Level Pressure 29.53 in    
Wind  
Wind Speed 9 mph ()    
Max Wind Speed 18 mph    
Max Gust Speed -    
Visibility 5.4 miles    
Events Rain    
Averages and records for this station are not official NWS values.
T = Trace of Precipitation, MM = Missing Value Source: Averaged Metar Reports

Daily Weather History Graph

Daily Weather History Graph

Search for Another Location

Airport or City:

Trip Planner

Search our weather history database for the weather conditions in past years. The results will help you decide how hot, cold, wet, or windy it might be!

Date:

Astronomy

Nov. 10, 2012 Rise Set
Actual Time 7:50 AM CET 4:57 PM CET
Civil Twilight 7:13 AM CET 5:33 PM CET
Nautical Twilight 6:33 AM CET 6:14 PM CET
Astronomical Twilight 5:54 AM CET 6:53 PM CET
Moon 3:11 AM CET (11/10) 2:57 PM CET (11/10)
Length of Visible Light 10h 19m
Length of Day
9h 07m
Waning Crescent, 16% of the Moon is Illuminated
Nov 10
Waning Crescent
Nov 13
New
Nov 20
First Quarter
Nov 28
Full
Dec 6
Last Quarter

Hourly Weather History & Observations

Time (CET) Temp. Windchill Dew Point Humidity Pressure Visibility Wind Dir Wind Speed Gust Speed Precip Events Conditions
12:15 AM 46.4 °F 41.9 °F 44.6 °F 93% 29.68 in 5.6 mi South 9.2 mph - N/A Rain Light Rain
12:21 AM 46.4 °F 41.9 °F 44.6 °F 93% 29.68 in 6.2 mi South 9.2 mph - N/A   Mostly Cloudy
12:25 AM 46.4 °F 41.5 °F 44.6 °F 93% 29.68 in 6.2 mi South 10.4 mph - N/A   Mostly Cloudy
12:29 AM 46.4 °F 41.5 °F 44.6 °F 93% 29.68 in 6.2 mi South 10.4 mph - N/A   Mostly Cloudy
12:40 AM 46.4 °F 41.5 °F 44.6 °F 93% 29.68 in 6.2 mi South 10.4 mph - N/A   Mostly Cloudy
12:44 AM 46.4 °F 41.5 °F 44.6 °F 93% 29.68 in 6.2 mi South 10.4 mph - N/A   Mostly Cloudy
12:55 AM 46.4 °F 41.5 °F 44.6 °F 93% 29.68 in 6.2 mi South 10.4 mph - N/A   Overcast
1:03 AM 46.4 °F 41.9 °F 44.6 °F 93% 29.68 in 6.2 mi South 9.2 mph - N/A   Overcast
1:14 AM 46.4 °F 41.9 °F 44.6 °F 93% 29.68 in 6.2 mi South 9.2 mph - N/A   Overcast
1:25 AM 46.4 °F 41.9 °F 44.6 °F 93% 29.68 in 6.2 mi South 9.2 mph - N/A   Overcast
1:36 AM 46.4 °F 41.9 °F 44.6 °F 93% 29.65 in 6.2 mi South 9.2 mph - N/A   Overcast
1:55 AM 46.4 °F 41.9 °F 44.6 °F 93% 29.65 in 6.2 mi South 9.2 mph - N/A   Drizzle
2:25 AM 48.2 °F - 44.6 °F 87% 29.65 in 6.2 mi South 10.4 mph - N/A   Overcast
2:51 AM 48.2 °F - 46.4 °F 93% 29.65 in 6.2 mi South 10.4 mph - N/A   Overcast
2:55 AM 48.2 °F - 46.4 °F 93% 29.65 in 6.2 mi South 10.4 mph - N/A   Overcast
3:15 AM 48.2 °F - 46.4 °F 93% 29.62 in 6.2 mi South 10.4 mph - N/A   Mostly Cloudy
3:25 AM 48.2 °F - 46.4 °F 93% 29.62 in 6.2 mi South 10.4 mph - N/A   Overcast
3:48 AM 48.2 °F - 46.4 °F 93% 29.62 in 5.6 mi South 9.2 mph - N/A   Mostly Cloudy
3:55 AM 48.2 °F - 46.4 °F 93% 29.62 in 5.6 mi South 10.4 mph - N/A   Mostly Cloudy
4:25 AM 48.2 °F - 46.4 °F 93% 29.59 in 5.0 mi South 8.1 mph - N/A   Mostly Cloudy
4:32 AM 48.2 °F - 46.4 °F 93% 29.59 in 4.3 mi South 8.1 mph - N/A   Overcast
4:55 AM 48.2 °F - 46.4 °F 93% 29.59 in 5.0 mi South 8.1 mph - N/A   Overcast
5:05 AM 48.2 °F - 46.4 °F 93% 29.59 in 5.0 mi South 8.1 mph - N/A   Overcast
5:25 AM 48.2 °F - 48.2 °F 100% 29.59 in 5.6 mi South 9.2 mph - N/A   Overcast
5:46 AM 50.0 °F - 48.2 °F 94% 29.56 in 3.7 mi South 10.4 mph - N/A Rain Light Rain
5:55 AM 50.0 °F - 48.2 °F 94% 29.56 in 3.1 mi South 9.2 mph - N/A Rain Rain
6:09 AM 50.0 °F - 48.2 °F 94% 29.56 in 4.3 mi South 8.1 mph - N/A   Overcast
6:25 AM 48.2 °F - 48.2 °F 100% 29.56 in 4.3 mi South 8.1 mph - N/A   Drizzle
6:42 AM 50.0 °F - 48.2 °F 94% 29.56 in 5.0 mi South 9.2 mph - N/A   Overcast
6:51 AM 50.0 °F - 48.2 °F 94% 29.56 in 3.7 mi South 10.4 mph - N/A   Overcast
6:55 AM 50.0 °F - 48.2 °F 94% 29.56 in 5.0 mi South 10.4 mph - N/A Rain Light Rain
7:18 AM 50.0 °F - 48.2 °F 94% 29.56 in 5.6 mi South 9.2 mph - N/A   Overcast
7:25 AM 50.0 °F - 48.2 °F 94% 29.56 in 5.6 mi South 9.2 mph - N/A   Overcast
7:55 AM 50.0 °F - 48.2 °F 94% 29.56 in 6.2 mi South 9.2 mph - N/A   Overcast
8:25 AM 50.0 °F - 48.2 °F 94% 29.56 in 6.2 mi South 11.5 mph - N/A   Overcast
8:55 AM 50.0 °F - 48.2 °F 94% 29.56 in 6.2 mi South 10.4 mph - N/A   Overcast
9:25 AM 50.0 °F - 48.2 °F 94% 29.56 in 6.2 mi South 8.1 mph - N/A   Overcast
9:55 AM 51.8 °F - 50.0 °F 94% 29.53 in 6.2 mi South 8.1 mph - N/A Rain Light Drizzle
10:11 AM 50.0 °F - 48.2 °F 94% 29.53 in - South 8.1 mph - N/A Rain Rain
10:25 AM 50.0 °F - 48.2 °F 94% 29.53 in 3.7 mi South 10.4 mph - N/A Rain Rain Showers
10:38 AM 50.0 °F - 50.0 °F 100% 29.53 in 3.7 mi South 9.2 mph - N/A Rain Light Rain Showers
10:42 AM 50.0 °F - 50.0 °F 100% 29.53 in 4.3 mi South 9.2 mph - N/A Rain Light Rain
10:55 AM 50.0 °F - 50.0 °F 100% 29.53 in 3.7 mi South 8.1 mph - N/A Rain Light Rain
11:00 AM 51.8 °F - 50.0 °F 94% 29.53 in 5.0 mi South 8.1 mph - N/A Rain Light Rain
11:04 AM 51.8 °F - 50.0 °F 94% 29.53 in 5.0 mi South 9.2 mph - N/A Rain Light Rain
11:08 AM 51.8 °F - 50.0 °F 94% 29.53 in 5.0 mi South 9.2 mph - N/A   Mostly Cloudy
11:10 AM 51.8 °F - 50.0 °F 94% 29.53 in 5.0 mi South 9.2 mph - N/A   Mostly Cloudy
11:18 AM 51.8 °F - 51.8 °F 100% 29.53 in 5.0 mi South 8.1 mph - N/A   Mostly Cloudy
11:25 AM 51.8 °F - 51.8 °F 100% 29.50 in 5.0 mi South 9.2 mph - N/A   Mostly Cloudy
11:29 AM 51.8 °F - 51.8 °F 100% 29.50 in 5.0 mi South 9.2 mph - N/A   Overcast
11:32 AM 51.8 °F - 51.8 °F 100% 29.50 in 5.0 mi South 9.2 mph - N/A   Overcast
11:40 AM 51.8 °F - 51.8 °F 100% 29.50 in 5.6 mi South 9.2 mph - N/A   Mostly Cloudy
11:44 AM 51.8 °F - 51.8 °F 100% 29.50 in 5.6 mi South 9.2 mph - N/A   Overcast
11:48 AM 51.8 °F - 51.8 °F 100% 29.50 in 5.6 mi South 10.4 mph - N/A   Overcast
11:55 AM 51.8 °F - 51.8 °F 100% 29.50 in 5.6 mi South 10.4 mph - N/A   Overcast
12:02 PM 51.8 °F - 51.8 °F 100% 29.50 in 5.0 mi South 10.4 mph - N/A   Overcast
12:25 PM 51.8 °F - 51.8 °F 100% 29.50 in 4.3 mi South 9.2 mph - N/A   Overcast
12:38 PM 51.8 °F - 51.8 °F 100% 29.50 in 5.0 mi South 9.2 mph - N/A   Overcast
12:44 PM 51.8 °F - 51.8 °F 100% 29.50 in 4.3 mi South 10.4 mph - N/A   Overcast
12:55 PM 53.6 °F - 51.8 °F 94% 29.50 in 4.3 mi South 9.2 mph - N/A   Overcast
1:05 PM 53.6 °F - 51.8 °F 94% 29.50 in 4.3 mi SSW 8.1 mph - N/A   Mostly Cloudy
1:25 PM 53.6 °F - 51.8 °F 94% 29.47 in 5.0 mi South 8.1 mph - N/A   Overcast
1:32 PM 53.6 °F - 51.8 °F 94% 29.47 in 5.0 mi South 8.1 mph - N/A   Overcast
1:55 PM 53.6 °F - 51.8 °F 94% 29.47 in 4.3 mi SSW 10.4 mph - N/A   Overcast
2:01 PM 53.6 °F - 51.8 °F 94% 29.47 in 5.6 mi SSW 10.4 mph - N/A   Overcast
2:19 PM 53.6 °F - 51.8 °F 94% 29.47 in 3.1 mi South 9.2 mph - N/A   Drizzle
2:25 PM 53.6 °F - 51.8 °F 94% 29.47 in 3.1 mi South 8.1 mph - N/A   Drizzle
2:29 PM 53.6 °F - 51.8 °F 94% 29.47 in 3.1 mi South 8.1 mph - N/A   Drizzle
2:42 PM 53.6 °F - 51.8 °F 94% 29.47 in 3.1 mi South 6.9 mph - N/A   Drizzle
2:55 PM 53.6 °F - 51.8 °F 94% 29.47 in 5.0 mi South 10.4 mph - N/A   Mostly Cloudy
2:59 PM 53.6 °F - 51.8 °F 94% 29.47 in 5.0 mi South 9.2 mph - N/A   Overcast
3:12 PM 53.6 °F - 51.8 °F 94% 29.47 in 5.6 mi South 9.2 mph - N/A   Overcast
3:25 PM 53.6 °F - 51.8 °F 94% 29.47 in 6.2 mi South 8.1 mph - N/A   Overcast
3:55 PM 53.6 °F - 51.8 °F 94% 29.44 in 6.2 mi SSE 5.8 mph - N/A   Mostly Cloudy
4:08 PM 53.6 °F - 51.8 °F 94% 29.44 in 6.2 mi South 5.8 mph - N/A   Overcast
4:18 PM 53.6 °F - 51.8 °F 94% 29.44 in 6.2 mi South 5.8 mph - N/A   Overcast
4:25 PM 53.6 °F - 51.8 °F 94% 29.44 in 6.2 mi SSE 4.6 mph - N/A   Overcast
4:39 PM 51.8 °F - 50.0 °F 94% 29.44 in 6.2 mi SE 4.6 mph - N/A   Overcast
4:49 PM 51.8 °F - 51.8 °F 100% 29.44 in 6.2 mi SSE 4.6 mph - N/A   Overcast
4:55 PM 53.6 °F - 51.8 °F 94% 29.44 in 6.2 mi SSE 5.8 mph - N/A   Overcast
5:06 PM 51.8 °F - 51.8 °F 100% 29.44 in 6.2 mi SSE 8.1 mph - N/A   Overcast
5:25 PM 51.8 °F - 51.8 °F 100% 29.44 in 6.2 mi SSE 5.8 mph - N/A   Overcast
5:55 PM 51.8 °F - 50.0 °F 94% 29.44 in 6.2 mi SSE 6.9 mph - N/A   Overcast
6:25 PM 51.8 °F - 50.0 °F 94% 29.44 in 6.2 mi SSE 8.1 mph - N/A   Mostly Cloudy
6:55 PM 51.8 °F - 50.0 °F 94% 29.44 in 5.6 mi South 6.9 mph - N/A   Overcast
7:25 PM 51.8 °F - 50.0 °F 94% 29.44 in 6.2 mi South 8.1 mph - N/A   Overcast
7:55 PM 51.8 °F - 50.0 °F 94% 29.44 in 6.2 mi South 8.1 mph - N/A   Partly Cloudy
8:25 PM 50.0 °F - 50.0 °F 100% 29.44 in 6.2 mi South 6.9 mph - N/A   Unknown
8:55 PM 50.0 °F - 50.0 °F 100% 29.44 in 6.2 mi SSE 8.1 mph - N/A   Partly Cloudy
9:25 PM 50.0 °F - 48.2 °F 94% 29.44 in 6.2 mi SSE 8.1 mph - N/A   Unknown
9:55 PM 50.0 °F - 48.2 °F 94% 29.44 in 6.2 mi SSE 9.2 mph - N/A   Mostly Cloudy
10:12 PM 50.0 °F - 48.2 °F 94% 29.44 in 6.2 mi SSE 10.4 mph - N/A   Mostly Cloudy
10:25 PM 51.8 °F - 48.2 °F 88% 29.44 in 6.2 mi SSE 11.5 mph - N/A   Mostly Cloudy
10:28 PM 51.8 °F - 48.2 °F 88% 29.44 in 6.2 mi SSE 12.7 mph - N/A   Overcast
10:35 PM 51.8 °F - 48.2 °F 88% 29.44 in 6.2 mi SSE 13.8 mph - N/A   Overcast
10:48 PM 51.8 °F - 48.2 °F 88% 29.44 in 4.3 mi South 13.8 mph - N/A Rain Light Rain
10:55 PM 51.8 °F - 48.2 °F 88% 29.44 in 5.0 mi South 15.0 mph - N/A Rain Heavy Rain Showers
10:59 PM 50.0 °F - 48.2 °F 94% 29.47 in 5.0 mi South 13.8 mph - N/A Rain Light Rain Showers
11:15 PM 51.8 °F - 50.0 °F 94% 29.47 in 6.2 mi South 15.0 mph - N/A   Heavy Drizzle
11:25 PM 51.8 °F - 50.0 °F 94% 29.47 in 6.2 mi SSW 12.7 mph - N/A   Heavy Drizzle
11:32 PM 50.0 °F - 48.2 °F 94% 29.47 in 4.3 mi West 18.4 mph - N/A   Light Drizzle
11:39 PM 50.0 °F - 48.2 °F 94% 29.47 in - West 18.4 mph - N/A   Heavy Drizzle
11:43 PM 50.0 °F - 48.2 °F 94% 29.50 in 3.1 mi West 18.4 mph - N/A   Heavy Drizzle
11:55 PM 48.2 °F - 48.2 °F 100% 29.50 in 6.2 mi West 13.8 mph - N/A Rain Light Rain